Temp
2 2 1 1 1 1 1 1 1 1 1 1 1 2 1 1 1 1 1 1 1 1 1 1 0 0 0 1 -0 -1 -1 -2 -2 -2 -3 -3 -3 -3 -3 -3 -3 -2 -2
2 2 1 1 0 -0 -0 0 0 0 0 0 1 1 1 1 1 1 1 0 0 0 0 0 0 0 -0 0 -1 -1 -1 -3 -3 -3 -3 -3 -3 -3 -3 -3 -3 -3 -3
2 0 -0 -0 -1 -1 -1 -1 -1 -1 -0 -0 0 1 1 1 0 0 -0 -0 0 0 0 -1 -1 0 -1 -1 -2 -3 -3 -3 -3 -3 -5 -4 -3 -3 -3 -3 -3 -4 -4
1 -1 -2 -2 -2 -2 -2 -2 -2 -2 -1 -1 -1 0 0 -0 -0 -0 -0 -1 -1 -1 -1 -1 -1 -2 -2 -3 -3 -3 -4 -4 -4 -4 -3 -3 -3 -4 -4 -4 -4 -5 -6
1 0 -0 -1 -1 -2 -2 -2 -2 -2 -2 -1 -1 -0 -1 -0 -1 -1 -1 -1 -1 -1 -1 -2 -2 -2 -3 -4 -4 -3 -5 -4 -4 -4 -4 -4 -4 -5 -5 -5 -5 -6 -7
1 -0 -1 -2 -2 -2 -2 -2 -2 -2 -3 -3 -3 -1 -1 -1 -1 -1 -1 -2 -2 -2 -2 -3 -4 -4 -4 -4 -3 -4 -4 -4 -4 -5 -5 -5 -6 -6 -6 -7 -7 -8 -8
0 -0 -1 -1 -2 -3 -3 -2 -2 -2 -3 -2 -2 -1 -2 -2 -2 -2 -2 -2 -3 -3 -4 -4 -3 -4 -4 -3 -4 -4 -5 -5 -5 -6 -7 -7 -7 -8 -8 -9 -9 -10 -10
-1 -1 -2 -1 -3 -4 -3 -2 -3 -3 -3 -2 -2 -2 -2 -2 -3 -3 -3 -4 -4 -4 -4 -4 -4 -4 -3 -4 -4 -5 -6 -7 -7 -8 -8 -9 -9 -9 -10 -10 -10 -10 -10
-3 -4 -4 -3 -3 -4 -3 -2 -3 -3 -3 -4 -4 -4 -4 -4 -4 -4 -4 -4 -3 -3 -4 -3 -3 -4 -4 -5 -6 -6 -7 -8 -8 -9 -9 -10 -10 -11 -11 -10 -11 -11 -11
-4 -4 -4 -3 -4 -3 -3 -3 -4 -4 -4 -5 -5 -5 -4 -4 -5 -3 -4 -3 -4 -3 -3 -3 -3 -4 -5 -6 -7 -8 -8 -9 -10 -10 -11 -11 -11 -11 -11 -11 -11 -12 -12
-4 -4 -4 -4 -4 -4 -4 -4 -5 -5 -5 -4 -4 -4 -4 -4 -4 -4 -3 -3 -3 -3 -4 -4 -5 -6 -7 -8 -9 -10 -10 -10 -11 -11 -11 -11 -11 -11 -12 -12 -13 -12 -12
-4 -3 -4 -4 -4 -4 -4 -4 -4 -4 -4 -4 -4 -4 -4 -3 -3 -3 -3 -3 -3 -4 -4 -5 -6 -8 -9 -9 -10 -10 -10 -10 -10 -11 -11 -11 -12 -12 -13 -13 -13 -13 -13
-3 -3 -4 -4 -4 -4 -4 -4 -4 -4 -4 -4 -4 -3 -3 -3 -3 -3 -3 -3 -4 -4 -5 -6 -8 -9 -9 -9 -9 -10 -10 -10 -10 -10 -11 -11 -12 -12 -12 -12 -13 -13 -13
-3 -3 -4 -4 -4 -4 -4 -4 -4 -4 -4 -4 -4 -4 -4 -3 -3 -3 -3 -4 -5 -5 -6 -7 -8 -9 -9 -9 -9 -9 -9 -10 -10 -10 -11 -11 -12 -12 -13 -13 -12 -12 -12
-3 -3 -4 -4 -4 -4 -4 -4 -4 -4 -4 -4 -4 -3 -3 -3 -3 -3 -3 -4 -5 -6 -7 -8 -8 -8 -8 -8 -8 -9 -9 -10 -10 -10 -11 -11 -12 -12 -12 -13 -13 -13 -13
-3 -3 -4 -4 -4 -4 -4 -4 -4 -4 -4 -4 -4 -4 -3 -3 -3 -3 -4 -5 -6 -7 -7 -7 -8 -8 -8 -9 -9 -9 -10 -10 -10 -11 -11 -11 -12 -12 -12 -12 -13 -13 -13
-3 -3 -4 -4 -4 -4 -4 -4 -4 -4 -4 -4 -4 -3 -3 -3 -3 -4 -4 -5 -7 -7 -7 -8 -8 -8 -8 -9 -9 -9 -10 -10 -10 -11 -11 -11 -12 -12 -12 -12 -12 -12 -12
-4 -4 -4 -4 -4 -4 -4 -4 -4 -4 -4 -4 -4 -4 -3 -3 -4 -4 -5 -6 -7 -8 -8 -8 -8 -9 -9 -9 -9 -9 -10 -10 -10 -11 -11 -12 -12 -12 -12 -12 -12 -12 -12
-4 -4 -4 -4 -4 -5 -5 -5 -5 -4 -4 -4 -4 -4 -4 -4 -4 -5 -6 -7 -7 -8 -8 -8 -9 -9 -9 -9 -9 -10 -10 -10 -10 -11 -11 -11 -12 -12 -12 -12 -12 -12 -12
-4 -4 -5 -5 -5 -5 -5 -5 -5 -5 -5 -5 -4 -4 -5 -5 -5 -6 -7 -8 -8 -9 -9 -9 -9 -9 -9 -10 -10 -10 -10 -10 -11 -11 -11 -11 -11 -12 -11 -12 -12 -12 -12
-4 -5 -5 -5 -5 -5 -5 -5 -5 -5 -5 -5 -5 -5 -5 -5 -6 -7 -8 -9 -9 -9 -9 -10 -10 -9 -9 -10 -10 -10 -10 -10 -10 -11 -11 -11 -11 -11 -11 -12 -12 -11 -11
-5 -5 -5 -5 -5 -5 -5 -5 -5 -5 -5 -5 -5 -6 -6 -6 -7 -8 -9 -9 -10 -10 -10 -10 -10 -10 -10 -10 -10 -10 -10 -11 -11 -11 -11 -11 -11 -11 -11 -11 -11 -12 -12
-5 -5 -5 -5 -6 -6 -6 -6 -6 -6 -6 -6 -6 -6 -7 -7 -8 -9 -10 -10 -10 -10 -10 -10 -11 -11 -10 -10 -10 -10 -10 -10 -11 -11 -11 -11 -11 -11 -11 -11 -12 -12 -12
-5 -5 -6 -6 -6 -6 -6 -6 -6 -6 -6 -6 -6 -7 -7 -8 -9 -10 -11 -11 -11 -11 -11 -11 -11 -11 -11 -11 -11 -11 -11 -11 -11 -11 -11 -11 -11 -11 -11 -11 -12 -12 -12
-6 -6 -6 -6 -6 -6 -6 -6 -6 -7 -6 -6 -7 -7 -8 -8 -9 -10 -11 -11 -11 -11 -11 -11 -11 -11 -11 -11 -11 -11 -11 -11 -11 -11 -11 -11 -11 -11 -11 -11 -12 -11 -12
-6 -6 -6 -6 -6 -6 -7 -7 -7 -7 -7 -7 -7 -7 -8 -9 -10 -11 -11 -11 -11 -11 -11 -11 -11 -11 -11 -11 -11 -11 -11 -11 -11 -11 -11 -11 -11 -11 -11 -11 -12 -11 -12
Height
3041 3041 3041 3042 3042 3042 3043 3044 3045 3046 3048 3049 3051 3053 3054 3056 3058 3061 3063 3065 3066 3067 3068 3068 3067 3066 3064 3062 3060 3055 3055 3052 3054 3052 3050 3047 3045 3041 3040 3036 3031 3026 3022
3031 3031 3031 3030 3031 3032 3032 3033 3034 3035 3036 3038 3040 3041 3044 3046 3049 3051 3053 3055 3056 3057 3057 3057 3056 3055 3054 3052 3048 3046 3046 3046 3043 3041 3038 3037 3034 3030 3025 3022 3019 3014 3008
3020 3021 3021 3022 3022 3022 3022 3021 3022 3023 3024 3026 3028 3030 3033 3036 3039 3042 3044 3046 3047 3048 3048 3048 3046 3043 3042 3041 3037 3037 3036 3034 3033 3028 3027 3026 3022 3018 3013 3009 3004 3000 2994
3013 3012 3012 3013 3013 3013 3013 3012 3011 3014 3015 3017 3018 3021 3024 3028 3031 3034 3037 3038 3039 3040 3039 3039 3038 3036 3034 3033 3032 3031 3028 3024 3021 3018 3015 3012 3008 3003 2998 2993 2990 2984 2979
3010 3008 3007 3007 3008 3008 3007 3006 3007 3007 3008 3009 3010 3012 3017 3022 3026 3029 3031 3032 3031 3031 3031 3028 3029 3027 3028 3026 3027 3023 3018 3017 3015 3008 3004 3000 2995 2990 2985 2980 2974 2968 2965
3006 3005 3004 3003 3003 3004 3004 3003 3003 3001 3001 3002 3003 3007 3011 3016 3021 3024 3023 3024 3023 3023 3024 3024 3023 3022 3019 3018 3014 3011 3010 3007 3002 2997 2993 2989 2982 2978 2972 2967 2962 2957 2954
3002 3001 3000 2999 3000 3001 2999 2999 2998 2996 2996 2994 2993 3002 3007 3012 3014 3016 3018 3017 3017 3016 3016 3018 3016 3012 3010 3008 3005 3002 2999 2994 2990 2986 2981 2976 2970 2966 2961 2957 2954 2949 2945
3000 2996 2996 2997 2998 2998 2998 2996 2995 2993 2993 2995 2997 3000 3003 3006 3006 3009 3011 3012 3012 3012 3010 3009 3008 3006 3002 3000 2996 2993 2990 2985 2980 2974 2968 2963 2959 2956 2952 2948 2944 2940 2936
2997 2997 2996 2996 2997 2997 2997 2997 2996 2995 2996 2996 2998 3000 3003 3005 3006 3008 3008 3008 3006 3007 3006 3005 3002 2999 2994 2989 2985 2983 2980 2974 2969 2964 2960 2957 2953 2949 2945 2941 2937 2931 2926
2998 2998 2998 2998 2997 2997 2997 2995 2995 2995 2996 2997 3000 3002 3005 3005 3005 3006 3004 3003 3004 3003 3000 2996 2993 2989 2985 2979 2975 2971 2968 2964 2961 2957 2954 2951 2948 2944 2940 2935 2930 2924 2918
2998 2998 2999 3000 3000 3000 3000 3000 3001 3002 3002 3003 3003 3004 3006 3007 3005 3003 3002 3001 2998 2995 2991 2987 2982 2977 2973 2969 2965 2962 2959 2957 2954 2953 2951 2948 2944 2940 2935 2930 2924 2919 2913
3000 3001 3002 3003 3003 3003 3004 3004 3005 3005 3005 3005 3005 3006 3006 3004 3002 3000 2997 2994 2991 2986 2982 2976 2972 2967 2963 2960 2957 2955 2954 2952 2951 2948 2945 2942 2939 2935 2930 2926 2920 2915 2908
3004 3004 3005 3006 3006 3006 3007 3007 3007 3007 3007 3006 3006 3004 3002 3000 2997 2994 2990 2986 2981 2977 2971 2967 2962 2959 2957 2955 2954 2952 2951 2949 2946 2943 2940 2937 2933 2929 2924 2920 2915 2910 2905
3006 3007 3007 3008 3008 3009 3009 3009 3008 3008 3007 3006 3004 3002 2999 2996 2992 2989 2984 2978 2973 2968 2963 2959 2957 2955 2953 2952 2951 2950 2948 2945 2943 2940 2937 2933 2929 2925 2919 2913 2909 2903 2899
3009 3009 3010 3010 3010 3010 3010 3009 3008 3007 3006 3004 3001 2999 2995 2991 2987 2982 2976 2971 2966 2961 2958 2955 2954 2953 2952 2951 2949 2947 2944 2942 2939 2936 2933 2929 2925 2920 2915 2908 2902 2897 2890
3010 3011 3011 3011 3010 3010 3009 3009 3008 3006 3004 3002 2999 2996 2991 2986 2981 2976 2970 2965 2960 2957 2955 2953 2952 2951 2949 2948 2946 2944 2941 2939 2936 2932 2928 2924 2920 2915 2910 2904 2896 2890 2884
3011 3011 3011 3011 3010 3010 3009 3008 3006 3004 3001 2999 2996 2991 2986 2981 2975 2969 2964 2960 2956 2955 2953 2952 2950 2949 2948 2946 2944 2942 2940 2937 2933 2929 2925 2920 2915 2910 2903 2898 2891 2884 2878
3011 3011 3011 3010 3009 3008 3007 3006 3004 3002 2999 2995 2992 2987 2982 2977 2971 2965 2960 2957 2954 2952 2951 2949 2949 2948 2946 2944 2942 2940 2937 2933 2930 2925 2920 2916 2910 2904 2898 2892 2886 2878 2872
3010 3010 3009 3009 3008 3007 3006 3004 3002 2999 2995 2992 2987 2983 2978 2972 2967 2961 2956 2954 2952 2950 2949 2948 2946 2945 2943 2941 2939 2936 2934 2930 2926 2922 2916 2910 2905 2899 2893 2886 2879 2874 2866
3008 3008 3008 3007 3007 3005 3004 3002 2999 2996 2992 2988 2984 2979 2973 2968 2962 2957 2953 2951 2949 2948 2947 2946 2944 2942 2940 2938 2936 2933 2930 2926 2921 2917 2911 2906 2901 2895 2888 2881 2874 2867 2862
3006 3006 3006 3005 3004 3002 3000 2998 2996 2993 2989 2985 2980 2975 2970 2964 2959 2954 2951 2949 2948 2946 2945 2943 2941 2939 2937 2935 2932 2929 2926 2922 2917 2913 2908 2903 2897 2891 2884 2877 2870 2863 2855
3004 3003 3002 3001 3000 2999 2997 2995 2992 2989 2985 2981 2975 2970 2965 2959 2955 2951 2949 2947 2945 2943 2942 2940 2938 2936 2933 2931 2928 2925 2921 2917 2912 2908 2903 2897 2892 2885 2879 2872 2864 2857 2850
3000 3000 2999 2998 2997 2995 2993 2991 2988 2984 2980 2976 2971 2965 2960 2956 2951 2947 2945 2943 2941 2939 2938 2936 2934 2931 2928 2925 2922 2919 2915 2912 2907 2902 2897 2892 2886 2880 2874 2865 2858 2851 2844
2996 2996 2995 2994 2993 2991 2989 2987 2983 2980 2975 2971 2966 2961 2956 2951 2947 2943 2941 2939 2937 2935 2933 2931 2930 2927 2924 2921 2917 2914 2910 2905 2901 2896 2891 2885 2881 2874 2866 2859 2853 2847 2838
2992 2992 2991 2990 2989 2987 2985 2982 2979 2975 2970 2966 2961 2956 2952 2947 2942 2938 2935 2934 2932 2930 2928 2926 2924 2922 2919 2916 2912 2908 2904 2900 2895 2890 2885 2879 2874 2868 2861 2854 2848 2841 2833
2987 2987 2986 2985 2984 2982 2980 2977 2974 2970 2965 2961 2956 2951 2946 2941 2937 2933 2930 2929 2927 2925 2923 2922 2920 2917 2914 2911 2907 2903 2899 2895 2890 2885 2880 2874 2869 2863 2856 2849 2843 2835 2827
Wind_Speed
39 39 39 43 43 41 40 40 38 38 35 33 32 37 41 44 43 41 41 41 40 40 42 44 44 46 48 47 50 47 42 41 40 39 38 38 41 44 44 46 49 51 53
34 36 37 37 39 41 44 44 44 40 37 35 35 40 41 42 41 40 39 39 41 43 44 44 44 45 49 52 46 39 40 39 38 38 38 40 40 41 42 46 48 51 54
27 29 31 33 33 34 35 35 35 37 40 37 38 41 41 42 39 36 35 36 39 42 42 41 43 49 50 39 39 33 35 35 40 34 34 42 44 43 45 48 51 52 53
20 20 23 25 25 27 25 26 25 27 31 34 36 37 37 38 36 34 34 34 35 36 38 42 41 40 35 30 30 34 34 32 35 37 41 44 44 45 48 51 52 52 51
20 20 16 15 17 21 21 20 21 26 29 34 34 32 31 33 32 32 31 33 34 31 38 34 33 28 28 28 32 33 32 35 38 38 41 44 45 47 49 51 52 48 42
14 16 15 16 16 14 14 15 23 25 23 22 21 24 25 26 26 29 27 28 32 26 24 21 20 22 24 27 31 32 33 36 38 41 43 44 45 47 48 46 42 37 33
11 13 11 12 12 9 12 14 16 17 15 24 22 17 21 22 29 27 25 23 17 13 14 18 20 23 26 30 33 35 36 40 43 43 42 42 44 42 39 34 30 32 32
11 8 8 12 8 10 10 17 18 14 11 13 15 17 13 15 11 10 10 8 9 12 17 20 24 27 30 32 35 37 38 39 39 39 41 39 36 31 29 29 30 32 34
4 1 1 1 4 4 6 8 6 5 5 3 6 3 3 3 1 3 5 8 12 16 19 23 25 29 34 37 39 38 37 37 36 35 32 28 25 24 27 29 30 34 36
3 2 5 1 5 3 2 5 5 9 11 12 10 9 4 3 4 5 8 11 15 19 23 28 32 36 38 39 39 38 33 30 26 22 20 20 22 24 26 29 32 33 36
6 6 6 5 8 13 15 15 15 12 12 10 8 7 3 3 5 7 10 15 19 24 28 33 36 38 37 33 30 26 22 18 15 14 15 17 19 21 24 27 30 33 34
8 8 11 15 15 15 14 13 11 8 7 6 5 2 3 6 9 13 17 21 26 30 33 35 34 32 28 24 20 17 14 12 12 14 16 17 19 21 23 25 28 29 32
17 17 16 15 13 11 10 8 7 6 5 4 4 6 10 13 17 20 25 28 31 31 31 29 25 19 14 11 10 9 10 12 14 16 18 20 22 23 25 26 26 27 26
15 14 13 12 10 8 7 6 5 5 5 6 8 12 15 19 22 25 28 30 29 27 24 16 10 7 7 7 8 10 12 13 15 16 18 20 22 23 25 27 27 27 25
12 11 10 8 7 6 5 5 5 6 8 10 13 17 20 23 26 29 30 27 23 18 10 5 5 5 6 8 10 12 13 15 17 18 19 21 22 23 25 29 30 30 30
9 7 6 5 5 4 3 3 5 7 10 14 17 20 22 26 29 30 28 22 16 8 4 4 5 6 7 9 12 14 14 16 18 19 21 23 24 26 26 28 31 31 31
4 3 3 2 2 1 2 4 7 10 13 16 19 22 25 28 31 30 26 18 11 5 1 3 3 4 6 8 10 12 14 16 18 20 22 25 27 28 30 30 31 32 31
2 1 0 1 2 3 5 7 10 13 17 20 22 24 27 30 31 28 23 16 7 3 3 1 1 4 6 8 10 12 14 16 18 21 23 26 28 31 31 31 31 33 33
2 2 2 3 4 5 7 9 12 15 19 22 24 26 28 30 29 25 20 13 7 5 4 3 3 5 7 9 11 13 15 17 19 21 24 26 28 31 31 31 31 32 33
5 5 5 5 6 6 8 11 14 17 21 23 25 27 29 30 28 23 16 11 7 6 6 6 5 6 8 10 12 14 17 19 20 22 24 27 29 30 32 31 32 33 33
7 7 7 7 7 9 11 13 16 18 22 24 26 28 29 29 26 21 15 9 8 9 8 8 8 9 10 12 14 16 17 19 21 23 26 28 30 31 31 31 31 32 35
9 9 8 8 9 10 12 15 17 20 23 25 27 29 29 28 24 18 13 10 10 11 10 10 11 11 13 15 17 18 20 22 24 25 27 29 31 33 34 33 33 34 36
11 10 10 10 11 12 14 16 19 21 24 27 29 30 29 28 23 18 15 13 13 12 12 11 12 14 16 18 19 21 23 24 25 27 27 29 31 33 35 36 35 36 37
13 12 11 12 12 14 16 18 20 23 26 28 30 30 29 27 23 19 16 15 14 14 13 12 13 14 16 19 21 24 26 26 26 26 28 29 30 33 36 36 37 38 39
14 13 13 13 14 15 17 19 22 24 27 29 31 31 30 27 24 20 17 16 15 15 15 14 15 16 18 20 22 23 24 24 26 26 27 28 31 33 35 36 38 39 38
15 15 14 14 15 16 18 21 23 25 28 30 31 31 29 27 24 22 19 17 16 16 16 16 16 17 19 20 21 23 23 23 24 25 26 29 31 32 34 36 38 40 38
Wind_Direction
265 266 266 264 264 265 265 264 261 256 255 256 260 251 245 248 251 250 250 255 257 259 261 262 266 269 266 269 278 265 274 274 278 280 280 282 283 287 291 291 290 290 292
271 269 269 267 263 263 264 264 262 262 259 260 257 248 242 244 247 249 250 252 255 258 262 265 269 265 265 265 265 275 278 275 278 281 286 286 287 285 287 288 289 291 293
276 271 269 268 267 268 271 272 268 262 259 260 253 246 239 238 241 245 249 253 258 262 264 266 267 259 266 269 280 278 277 280 281 286 292 288 289 292 291 292 293 294 295
293 283 276 271 273 271 276 280 274 261 253 247 248 247 238 237 238 243 250 257 264 264 265 271 269 274 276 279 282 280 279 289 296 293 289 289 293 295 295 294 296 298 300
293 288 280 275 267 276 277 275 273 270 263 256 247 244 233 234 238 246 256 258 271 272 265 262 267 275 277 284 281 291 302 291 287 290 290 294 296 296 297 299 300 303 302
288 280 269 272 276 274 275 277 280 275 257 242 235 216 222 229 246 249 259 264 264 261 268 273 276 279 283 298 300 289 290 290 293 294 295 297 297 298 299 301 303 302 303
282 290 276 268 260 266 273 283 271 270 242 235 205 221 233 233 240 249 263 266 252 261 269 275 287 305 296 290 290 292 296 295 293 296 299 298 300 302 302 302 303 304 308
293 311 262 256 264 266 284 300 270 271 249 187 211 222 221 233 233 265 260 272 279 290 312 311 292 291 292 290 292 296 297 297 299 301 302 303 303 303 303 305 310 311 315
295 13 5 276 288 300 315 298 297 294 290 147 131 151 179 174 186 270 290 315 314 296 286 287 292 292 294 297 297 299 299 300 303 304 304 303 304 308 310 314 315 316 315
75 127 166 162 346 46 57 62 65 104 93 89 92 91 96 105 37 311 310 307 291 295 299 299 296 294 295 298 299 301 307 308 306 305 307 310 312 314 315 316 316 319 321
127 94 97 101 105 89 84 88 85 84 87 90 77 61 13 295 297 309 305 300 299 296 295 297 298 298 298 300 305 311 314 316 316 314 310 310 313 316 318 320 319 320 322
113 128 125 116 101 98 96 90 83 80 80 73 61 23 330 327 324 317 310 307 305 305 305 303 304 308 313 318 321 325 327 329 325 322 323 324 326 325 322 322 322 323 323
115 114 113 108 103 97 94 91 86 78 71 59 24 355 341 332 326 322 319 317 315 313 312 316 319 321 327 336 342 347 344 338 334 333 331 330 329 328 327 327 324 323 323
114 110 106 103 103 101 98 92 82 67 44 15 355 344 337 332 329 327 325 323 322 321 319 325 343 4 2 4 1 352 345 341 338 334 331 332 333 332 329 329 330 326 326
113 110 108 106 102 93 80 65 49 24 6 355 348 341 337 335 333 333 330 329 326 325 333 10 34 49 36 13 360 352 347 341 338 336 335 335 336 337 335 331 331 331 331
115 111 107 98 85 72 56 35 9 355 350 348 344 339 337 337 337 336 334 334 330 336 3 50 67 39 18 5 352 345 342 339 338 336 334 334 336 337 335 332 331 332 331
114 116 115 106 87 48 13 353 350 347 342 341 342 342 341 340 339 338 337 334 324 323 37 104 55 14 4 357 348 341 336 335 334 334 335 337 338 336 334 335 333 333 332
136 136 119 347 331 333 339 342 341 339 341 342 342 341 341 341 340 338 334 327 310 277 178 176 324 337 343 345 342 338 336 336 335 335 336 335 335 338 336 333 332 333 332
228 254 276 293 303 315 326 330 334 339 340 339 339 340 340 341 340 338 331 318 290 231 227 251 288 320 328 330 332 333 332 333 334 334 336 339 338 338 338 336 332 333 330
242 254 265 275 290 309 320 327 335 336 335 336 337 339 340 340 340 338 327 304 268 253 257 265 285 308 319 326 327 327 327 331 334 336 339 339 339 339 338 337 335 334 335
247 254 264 282 299 313 321 325 328 330 333 334 336 338 341 341 338 334 321 296 273 267 270 276 291 308 319 323 324 324 323 323 326 330 333 336 337 339 339 336 332 334 337
251 258 271 287 299 308 315 320 325 328 330 333 337 339 340 339 335 330 316 299 286 279 280 287 297 306 310 314 317 318 318 319 320 321 323 327 332 336 338 337 334 336 334
255 264 275 286 295 305 313 318 322 325 329 333 337 338 338 336 332 321 308 298 290 285 283 287 297 306 313 317 320 320 319 319 320 321 320 322 329 333 335 339 339 336 333
256 262 272 283 294 304 311 315 319 324 329 334 336 336 335 333 329 317 303 295 292 288 289 293 299 304 310 314 317 317 317 318 320 321 322 322 327 333 336 337 337 337 334
253 262 272 283 293 302 309 313 317 323 328 332 335 335 334 332 327 318 302 294 292 291 292 296 301 307 313 317 319 319 321 322 322 323 324 325 331 333 335 334 336 337 334
254 263 272 282 292 300 308 311 315 322 328 332 333 333 331 329 325 319 305 291 288 289 292 296 301 309 316 321 322 324 324 324 323 324 324 326 331 334 332 332 337 337 336